User: anonymous   Login
Location: Ocean City
(38.3360°N, 75.0850°W)
Time: 05:42:55
(UTC-05:00)
Language:

Tiros 1 despin weight - Orbit

View from above orbital plane
View from above orbital plane
View from above satellite
View from above satellite

Ground track
Ground track

The orbit data is extracted from the following two-line orbital elements,

1   115U 60002D   19321.76485352 -.00000016 +00000-0 +25304-4 0  9997
2   115 048.1662 216.9065 0034481 030.7766 329.5160 14.83508758160231
Epoch (UTC): 17 November 2019 18:21:23
Eccentricity: 0.0034481
inclination: 48.1662°
perigee height: 594 km
apogee height: 642 km
right ascension of ascending node: 216.9065°
argument of perigee: 30.7766°
revolutions per day: 14.83508758
mean anomaly at epoch: 329.5160°
orbit number at epoch: 16023

The dashed part of the orbit path shows where the satellite is in the earth's shadow,  

DLR